#datetime,building,power
2022-09-29T00:00:00,pst,16.09
2022-09-29T00:01:00,pst,16.08
2022-09-29T00:02:00,pst,15.99
2022-09-29T00:03:00,pst,15.95
2022-09-29T00:04:00,pst,15.92
2022-09-29T00:05:00,pst,15.95
2022-09-29T00:06:00,pst,16.13
2022-09-29T00:07:00,pst,16.11
2022-09-29T00:08:00,pst,16.15
2022-09-29T00:09:00,pst,16.16
2022-09-29T00:10:00,pst,15.97
2022-09-29T00:11:00,pst,15.87
2022-09-29T00:12:00,pst,15.87
2022-09-29T00:13:00,pst,15.86
2022-09-29T00:14:00,pst,15.83
2022-09-29T00:15:00,pst,16.49
2022-09-29T00:16:00,pst,16.63
2022-09-29T00:17:00,pst,16.52
2022-09-29T00:18:00,pst,16.55
2022-09-29T00:19:00,pst,16.59
2022-09-29T00:20:00,pst,16.60
2022-09-29T00:21:00,pst,16.52
2022-09-29T00:22:00,pst,16.53
2022-09-29T00:23:00,pst,16.52
2022-09-29T00:24:00,pst,15.81
2022-09-29T00:25:00,pst,16.14
2022-09-29T00:26:00,pst,16.07
2022-09-29T00:27:00,pst,16.07
2022-09-29T00:28:00,pst,16.12
2022-09-29T00:29:00,pst,16.09
2022-09-29T00:30:00,pst,16.03
2022-09-29T00:31:00,pst,15.95
2022-09-29T00:32:00,pst,15.92
2022-09-29T00:33:00,pst,15.97
2022-09-29T00:34:00,pst,16.18
2022-09-29T00:35:00,pst,16.03
2022-09-29T00:36:00,pst,15.97
2022-09-29T00:37:00,pst,15.97
2022-09-29T00:38:00,pst,15.90
2022-09-29T00:39:00,pst,15.85
2022-09-29T00:40:00,pst,15.79
2022-09-29T00:41:00,pst,15.85
2022-09-29T00:42:00,pst,15.71
2022-09-29T00:43:00,pst,15.70
2022-09-29T00:44:00,pst,15.81
2022-09-29T00:45:00,pst,15.62
2022-09-29T00:46:00,pst,15.72
2022-09-29T00:47:00,pst,15.59
2022-09-29T00:48:00,pst,15.58
2022-09-29T00:49:00,pst,15.58
2022-09-29T00:50:00,pst,15.59
2022-09-29T00:51:00,pst,15.63
2022-09-29T00:52:00,pst,15.75
2022-09-29T00:53:00,pst,16.32
2022-09-29T00:54:00,pst,15.79
2022-09-29T00:55:00,pst,15.87
2022-09-29T00:56:00,pst,15.92
2022-09-29T00:57:00,pst,15.93
2022-09-29T00:58:00,pst,16.03
2022-09-29T00:59:00,pst,15.89
2022-09-29T01:00:00,pst,15.86
2022-09-29T01:01:00,pst,16.52
2022-09-29T01:02:00,pst,16.60
2022-09-29T01:03:00,pst,16.72
2022-09-29T01:04:00,pst,16.67
2022-09-29T01:05:00,pst,16.66
2022-09-29T01:06:00,pst,16.68
2022-09-29T01:07:00,pst,16.77
2022-09-29T01:08:00,pst,16.71
2022-09-29T01:09:00,pst,16.80
2022-09-29T01:10:00,pst,16.79
2022-09-29T01:11:00,pst,16.07
2022-09-29T01:12:00,pst,16.11
2022-09-29T01:13:00,pst,15.97
2022-09-29T01:14:00,pst,15.88
2022-09-29T01:15:00,pst,15.89
2022-09-29T01:16:00,pst,15.78
2022-09-29T01:17:00,pst,15.78
2022-09-29T01:18:00,pst,15.73
2022-09-29T01:19:00,pst,15.67
2022-09-29T01:20:00,pst,15.72
2022-09-29T01:21:00,pst,15.66
2022-09-29T01:22:00,pst,15.69
2022-09-29T01:23:00,pst,15.65
2022-09-29T01:24:00,pst,15.61
2022-09-29T01:25:00,pst,15.69
2022-09-29T01:26:00,pst,24.51
2022-09-29T01:27:00,pst,24.56
2022-09-29T01:28:00,pst,24.39
2022-09-29T01:29:00,pst,24.29
2022-09-29T01:30:00,pst,15.79
2022-09-29T01:31:00,pst,15.87
2022-09-29T01:32:00,pst,15.90
2022-09-29T01:33:00,pst,15.91
2022-09-29T01:34:00,pst,15.90
2022-09-29T01:35:00,pst,15.89
2022-09-29T01:36:00,pst,15.96
2022-09-29T01:37:00,pst,15.89
2022-09-29T01:38:00,pst,15.94
2022-09-29T01:39:00,pst,15.74
2022-09-29T01:40:00,pst,15.81
2022-09-29T01:41:00,pst,15.80
2022-09-29T01:42:00,pst,15.78
2022-09-29T01:43:00,pst,15.85
2022-09-29T01:44:00,pst,15.87
2022-09-29T01:45:00,pst,15.86
2022-09-29T01:46:00,pst,15.92
2022-09-29T01:47:00,pst,15.89
2022-09-29T01:48:00,pst,16.52
2022-09-29T01:49:00,pst,16.36
2022-09-29T01:50:00,pst,16.52
2022-09-29T01:51:00,pst,16.44
2022-09-29T01:52:00,pst,16.52
2022-09-29T01:53:00,pst,16.46
2022-09-29T01:54:00,pst,16.47
2022-09-29T01:55:00,pst,16.52
2022-09-29T01:56:00,pst,16.58
2022-09-29T01:57:00,pst,16.69
2022-09-29T01:58:00,pst,16.74
2022-09-29T01:59:00,pst,16.17
2022-09-29T02:00:00,pst,16.12
2022-09-29T02:01:00,pst,16.17
2022-09-29T02:02:00,pst,16.16
2022-09-29T02:03:00,pst,16.28
2022-09-29T02:04:00,pst,16.29
2022-09-29T02:05:00,pst,16.17
2022-09-29T02:06:00,pst,16.29
2022-09-29T02:07:00,pst,16.02
2022-09-29T02:08:00,pst,15.99
2022-09-29T02:09:00,pst,16.06
2022-09-29T02:10:00,pst,15.87
2022-09-29T02:11:00,pst,15.81
2022-09-29T02:12:00,pst,15.76
2022-09-29T02:13:00,pst,15.78
2022-09-29T02:14:00,pst,15.73
2022-09-29T02:15:00,pst,15.68
2022-09-29T02:16:00,pst,15.68
2022-09-29T02:17:00,pst,15.72
2022-09-29T02:18:00,pst,15.83
2022-09-29T02:19:00,pst,15.73
2022-09-29T02:20:00,pst,15.77
2022-09-29T02:21:00,pst,16.57
2022-09-29T02:22:00,pst,15.88
2022-09-29T02:23:00,pst,15.95
2022-09-29T02:24:00,pst,15.89
2022-09-29T02:25:00,pst,15.82
2022-09-29T02:26:00,pst,15.95
2022-09-29T02:27:00,pst,16.52
2022-09-29T02:28:00,pst,15.90
2022-09-29T02:29:00,pst,16.75
2022-09-29T02:30:00,pst,16.73
2022-09-29T02:31:00,pst,15.84
2022-09-29T02:32:00,pst,15.86
2022-09-29T02:33:00,pst,15.63
2022-09-29T02:34:00,pst,15.53
2022-09-29T02:35:00,pst,16.16
2022-09-29T02:36:00,pst,16.23
2022-09-29T02:37:00,pst,16.31
2022-09-29T02:38:00,pst,16.40
2022-09-29T02:39:00,pst,16.44
2022-09-29T02:40:00,pst,16.44
2022-09-29T02:41:00,pst,16.38
2022-09-29T02:42:00,pst,16.40
2022-09-29T02:43:00,pst,16.35
2022-09-29T02:44:00,pst,16.37
2022-09-29T02:45:00,pst,15.72
2022-09-29T02:46:00,pst,15.89
2022-09-29T02:47:00,pst,15.73
2022-09-29T02:48:00,pst,15.73
2022-09-29T02:49:00,pst,15.64
2022-09-29T02:50:00,pst,15.58
2022-09-29T02:51:00,pst,15.53
2022-09-29T02:52:00,pst,15.47
2022-09-29T02:53:00,pst,15.80
2022-09-29T02:54:00,pst,16.33
2022-09-29T02:55:00,pst,16.37
2022-09-29T02:56:00,pst,16.52
2022-09-29T02:57:00,pst,16.45
2022-09-29T02:58:00,pst,16.45
2022-09-29T02:59:00,pst,16.54
2022-09-29T03:00:00,pst,16.55
2022-09-29T03:01:00,pst,16.54
2022-09-29T03:02:00,pst,16.52
2022-09-29T03:03:00,pst,15.80
2022-09-29T03:04:00,pst,15.90
2022-09-29T03:05:00,pst,15.99
2022-09-29T03:06:00,pst,15.52
2022-09-29T03:07:00,pst,15.52
2022-09-29T03:08:00,pst,15.47
2022-09-29T03:09:00,pst,15.52
2022-09-29T03:10:00,pst,15.49
2022-09-29T03:11:00,pst,15.62
2022-09-29T03:12:00,pst,15.45
2022-09-29T03:13:00,pst,15.44
2022-09-29T03:14:00,pst,15.65
2022-09-29T03:15:00,pst,15.68
2022-09-29T03:16:00,pst,15.67
2022-09-29T03:17:00,pst,15.58
2022-09-29T03:18:00,pst,15.57
2022-09-29T03:19:00,pst,15.52
2022-09-29T03:20:00,pst,15.59
2022-09-29T03:21:00,pst,15.57
2022-09-29T03:22:00,pst,15.57
2022-09-29T03:23:00,pst,15.61
2022-09-29T03:24:00,pst,15.72
2022-09-29T03:25:00,pst,15.61
2022-09-29T03:26:00,pst,15.56
2022-09-29T03:27:00,pst,15.55
2022-09-29T03:28:00,pst,15.39
2022-09-29T03:29:00,pst,15.34
2022-09-29T03:30:00,pst,15.35
2022-09-29T03:31:00,pst,15.29
2022-09-29T03:32:00,pst,15.38
2022-09-29T03:33:00,pst,15.45
2022-09-29T03:34:00,pst,15.47
2022-09-29T03:35:00,pst,15.46
2022-09-29T03:36:00,pst,15.46
2022-09-29T03:37:00,pst,15.37
2022-09-29T03:38:00,pst,15.33
2022-09-29T03:39:00,pst,15.31
2022-09-29T03:40:00,pst,15.35
2022-09-29T03:41:00,pst,15.34
2022-09-29T03:42:00,pst,15.40
2022-09-29T03:43:00,pst,15.47
2022-09-29T03:44:00,pst,15.49
2022-09-29T03:45:00,pst,15.44
2022-09-29T03:46:00,pst,15.43
2022-09-29T03:47:00,pst,15.44
2022-09-29T03:48:00,pst,15.44
2022-09-29T03:49:00,pst,15.38
2022-09-29T03:50:00,pst,15.39
2022-09-29T03:51:00,pst,15.44
2022-09-29T03:52:00,pst,15.54
2022-09-29T03:53:00,pst,15.37
2022-09-29T03:54:00,pst,15.70
2022-09-29T03:55:00,pst,15.43
2022-09-29T03:56:00,pst,15.39
2022-09-29T03:57:00,pst,15.95
2022-09-29T03:58:00,pst,15.43
2022-09-29T03:59:00,pst,16.04
2022-09-29T04:00:00,pst,15.92
2022-09-29T04:01:00,pst,15.90
2022-09-29T04:02:00,pst,16.00
2022-09-29T04:03:00,pst,15.95
2022-09-29T04:04:00,pst,16.02
2022-09-29T04:05:00,pst,16.04
2022-09-29T04:06:00,pst,16.03
2022-09-29T04:07:00,pst,16.05
2022-09-29T04:08:00,pst,15.55
2022-09-29T04:09:00,pst,15.83
2022-09-29T04:10:00,pst,15.81
2022-09-29T04:11:00,pst,15.91
2022-09-29T04:12:00,pst,15.80
2022-09-29T04:13:00,pst,15.71
2022-09-29T04:14:00,pst,15.67
2022-09-29T04:15:00,pst,15.66
2022-09-29T04:16:00,pst,15.95
2022-09-29T04:17:00,pst,15.97
2022-09-29T04:18:00,pst,15.89
2022-09-29T04:19:00,pst,16.51
2022-09-29T04:20:00,pst,15.83
2022-09-29T04:21:00,pst,15.82
2022-09-29T04:22:00,pst,15.70
2022-09-29T04:23:00,pst,15.55
2022-09-29T04:24:00,pst,15.54
2022-09-29T04:25:00,pst,15.50
2022-09-29T04:26:00,pst,15.46
2022-09-29T04:27:00,pst,15.47
2022-09-29T04:28:00,pst,15.56
2022-09-29T04:29:00,pst,15.54
2022-09-29T04:30:00,pst,15.61
2022-09-29T04:31:00,pst,15.56
2022-09-29T04:32:00,pst,15.44
2022-09-29T04:33:00,pst,24.22
2022-09-29T04:34:00,pst,24.02
2022-09-29T04:35:00,pst,23.91
2022-09-29T04:36:00,pst,23.89
2022-09-29T04:37:00,pst,15.36
2022-09-29T04:38:00,pst,15.36
2022-09-29T04:39:00,pst,15.55
2022-09-29T04:40:00,pst,15.39
2022-09-29T04:41:00,pst,15.35
2022-09-29T04:42:00,pst,15.39
2022-09-29T04:43:00,pst,15.38
2022-09-29T04:44:00,pst,15.32
2022-09-29T04:45:00,pst,15.32
2022-09-29T04:46:00,pst,15.37
2022-09-29T04:47:00,pst,15.29
2022-09-29T04:48:00,pst,15.92
2022-09-29T04:49:00,pst,16.15
2022-09-29T04:50:00,pst,16.06
2022-09-29T04:51:00,pst,16.06
2022-09-29T04:52:00,pst,16.07
2022-09-29T04:53:00,pst,16.15
2022-09-29T04:54:00,pst,16.23
2022-09-29T04:55:00,pst,16.20
2022-09-29T04:56:00,pst,16.31
2022-09-29T04:57:00,pst,16.31
2022-09-29T04:58:00,pst,15.82
2022-09-29T04:59:00,pst,15.66
2022-09-29T05:00:00,pst,15.69
2022-09-29T05:01:00,pst,15.81
2022-09-29T05:02:00,pst,15.89
2022-09-29T05:03:00,pst,16.32
2022-09-29T05:04:00,pst,16.05
2022-09-29T05:05:00,pst,15.84
2022-09-29T05:06:00,pst,15.83
2022-09-29T05:07:00,pst,15.78
2022-09-29T05:08:00,pst,15.59
2022-09-29T05:09:00,pst,15.51
2022-09-29T05:10:00,pst,15.56
2022-09-29T05:11:00,pst,15.52
2022-09-29T05:12:00,pst,15.40
2022-09-29T05:13:00,pst,15.41
2022-09-29T05:14:00,pst,15.30
2022-09-29T05:15:00,pst,15.29
2022-09-29T05:16:00,pst,15.32
2022-09-29T05:17:00,pst,15.48
2022-09-29T05:18:00,pst,15.32
2022-09-29T05:19:00,pst,15.37
2022-09-29T05:20:00,pst,15.34
2022-09-29T05:21:00,pst,15.55
2022-09-29T05:22:00,pst,15.59
2022-09-29T05:23:00,pst,15.62
2022-09-29T05:24:00,pst,15.57
2022-09-29T05:25:00,pst,15.71
2022-09-29T05:26:00,pst,15.68
2022-09-29T05:27:00,pst,15.73
2022-09-29T05:28:00,pst,15.60
2022-09-29T05:29:00,pst,15.64
2022-09-29T05:30:00,pst,15.63
2022-09-29T05:31:00,pst,15.61
2022-09-29T05:32:00,pst,15.70
2022-09-29T05:33:00,pst,15.70
2022-09-29T05:34:00,pst,15.74
2022-09-29T05:35:00,pst,15.66
2022-09-29T05:36:00,pst,15.78
2022-09-29T05:37:00,pst,16.05
2022-09-29T05:38:00,pst,16.08
2022-09-29T05:39:00,pst,16.16
2022-09-29T05:40:00,pst,16.15
2022-09-29T05:41:00,pst,16.12
2022-09-29T05:42:00,pst,16.16
2022-09-29T05:43:00,pst,16.17
2022-09-29T05:44:00,pst,16.06
2022-09-29T05:45:00,pst,16.19
2022-09-29T05:46:00,pst,15.41
2022-09-29T05:47:00,pst,15.46
2022-09-29T05:48:00,pst,15.58
2022-09-29T05:49:00,pst,15.53
2022-09-29T05:50:00,pst,15.46
2022-09-29T05:51:00,pst,15.45
2022-09-29T05:52:00,pst,15.47
2022-09-29T05:53:00,pst,15.47
2022-09-29T05:54:00,pst,15.76
2022-09-29T05:55:00,pst,15.82
2022-09-29T05:56:00,pst,15.80
2022-09-29T05:57:00,pst,15.83
2022-09-29T05:58:00,pst,15.76
2022-09-29T05:59:00,pst,15.79
2022-09-29T06:00:00,pst,15.83
2022-09-29T06:01:00,pst,15.86
2022-09-29T06:02:00,pst,15.82
2022-09-29T06:03:00,pst,15.77
2022-09-29T06:04:00,pst,15.92
2022-09-29T06:05:00,pst,15.65
2022-09-29T06:06:00,pst,15.49
2022-09-29T06:07:00,pst,15.51
2022-09-29T06:08:00,pst,15.50
2022-09-29T06:09:00,pst,15.48
2022-09-29T06:10:00,pst,15.41
2022-09-29T06:11:00,pst,15.38
2022-09-29T06:12:00,pst,15.40
2022-09-29T06:13:00,pst,15.83
2022-09-29T06:14:00,pst,15.46
2022-09-29T06:15:00,pst,15.48
2022-09-29T06:16:00,pst,15.44
2022-09-29T06:17:00,pst,15.40
2022-09-29T06:18:00,pst,15.42
2022-09-29T06:19:00,pst,15.40
2022-09-29T06:20:00,pst,15.34
2022-09-29T06:21:00,pst,15.31
2022-09-29T06:22:00,pst,15.29
2022-09-29T06:23:00,pst,15.49
2022-09-29T06:24:00,pst,16.13
2022-09-29T06:25:00,pst,16.16
2022-09-29T06:26:00,pst,16.14
2022-09-29T06:27:00,pst,16.37
2022-09-29T06:28:00,pst,16.35
2022-09-29T06:29:00,pst,16.50
2022-09-29T06:30:00,pst,16.48
2022-09-29T06:31:00,pst,16.55
2022-09-29T06:32:00,pst,16.64
2022-09-29T06:33:00,pst,16.78
2022-09-29T06:34:00,pst,27.81
2022-09-29T06:35:00,pst,16.06
2022-09-29T06:36:00,pst,20.12
2022-09-29T06:37:00,pst,31.74
2022-09-29T06:38:00,pst,20.02
2022-09-29T06:39:00,pst,20.03
2022-09-29T06:40:00,pst,14.13
2022-09-29T06:41:00,pst,14.16
2022-09-29T06:42:00,pst,14.12
2022-09-29T06:43:00,pst,14.02
2022-09-29T06:44:00,pst,13.97
2022-09-29T06:45:00,pst,13.81
2022-09-29T06:46:00,pst,13.98
2022-09-29T06:47:00,pst,14.01
2022-09-29T06:48:00,pst,13.97
2022-09-29T06:49:00,pst,13.96
2022-09-29T06:50:00,pst,13.94
2022-09-29T06:51:00,pst,13.96
2022-09-29T06:52:00,pst,14.03
2022-09-29T06:53:00,pst,13.89
2022-09-29T06:54:00,pst,13.94
2022-09-29T06:55:00,pst,13.87
2022-09-29T06:56:00,pst,13.82
2022-09-29T06:57:00,pst,13.80
2022-09-29T06:58:00,pst,9.76
2022-09-29T06:59:00,pst,13.72
2022-09-29T07:00:00,pst,22.49
2022-09-29T07:01:00,pst,18.46
2022-09-29T07:02:00,pst,18.17
2022-09-29T07:03:00,pst,13.57
2022-09-29T07:04:00,pst,13.69
2022-09-29T07:05:00,pst,9.71
2022-09-29T07:06:00,pst,13.58
2022-09-29T07:07:00,pst,13.54
2022-09-29T07:08:00,pst,9.81
2022-09-29T07:09:00,pst,9.88
2022-09-29T07:10:00,pst,14.45
2022-09-29T07:11:00,pst,14.60
2022-09-29T07:12:00,pst,10.55
2022-09-29T07:13:00,pst,14.49
2022-09-29T07:14:00,pst,14.18
2022-09-29T07:15:00,pst,10.40
2022-09-29T07:16:00,pst,10.51
2022-09-29T07:17:00,pst,14.37
2022-09-29T07:18:00,pst,14.37
2022-09-29T07:19:00,pst,10.54
2022-09-29T07:20:00,pst,13.83
2022-09-29T07:21:00,pst,13.82
2022-09-29T07:22:00,pst,9.85
2022-09-29T07:23:00,pst,9.85
2022-09-29T07:24:00,pst,13.71
2022-09-29T07:25:00,pst,13.78
2022-09-29T07:26:00,pst,9.89
2022-09-29T07:27:00,pst,13.86
2022-09-29T07:28:00,pst,13.75
2022-09-29T07:29:00,pst,9.82
2022-09-29T07:30:00,pst,9.87
2022-09-29T07:31:00,pst,13.79
2022-09-29T07:32:00,pst,13.67
2022-09-29T07:33:00,pst,9.73
2022-09-29T07:34:00,pst,9.75
2022-09-29T07:35:00,pst,9.79
2022-09-29T07:36:00,pst,9.61
2022-09-29T07:37:00,pst,9.56
2022-09-29T07:38:00,pst,9.66
2022-09-29T07:39:00,pst,10.48
2022-09-29T07:40:00,pst,10.30
2022-09-29T07:41:00,pst,10.37
2022-09-29T07:42:00,pst,10.23
2022-09-29T07:43:00,pst,10.32
2022-09-29T07:44:00,pst,10.41
2022-09-29T07:45:00,pst,9.90
2022-09-29T07:46:00,pst,9.95
2022-09-29T07:47:00,pst,9.98
2022-09-29T07:48:00,pst,9.87
2022-09-29T07:49:00,pst,10.03
2022-09-29T07:50:00,pst,9.77
2022-09-29T07:51:00,pst,9.76
2022-09-29T07:52:00,pst,9.68
2022-09-29T07:53:00,pst,9.82
2022-09-29T07:54:00,pst,9.65
2022-09-29T07:55:00,pst,9.65
2022-09-29T07:56:00,pst,10.63
2022-09-29T07:57:00,pst,10.63
2022-09-29T07:58:00,pst,10.62
2022-09-29T07:59:00,pst,10.73
2022-09-29T08:00:00,pst,10.70
2022-09-29T08:01:00,pst,10.61
2022-09-29T08:02:00,pst,10.57
2022-09-29T08:03:00,pst,10.73
2022-09-29T08:04:00,pst,10.77
2022-09-29T08:05:00,pst,10.90
2022-09-29T08:06:00,pst,10.93
2022-09-29T08:07:00,pst,10.89
2022-09-29T08:08:00,pst,10.86
2022-09-29T08:09:00,pst,10.74
2022-09-29T08:10:00,pst,10.73
2022-09-29T08:11:00,pst,10.03
2022-09-29T08:12:00,pst,10.06
2022-09-29T08:13:00,pst,10.03
2022-09-29T08:14:00,pst,9.97
2022-09-29T08:15:00,pst,9.96
2022-09-29T08:16:00,pst,9.96
2022-09-29T08:17:00,pst,9.86
2022-09-29T08:18:00,pst,10.00
2022-09-29T08:19:00,pst,9.89
2022-09-29T08:20:00,pst,10.57
2022-09-29T08:21:00,pst,10.48
2022-09-29T08:22:00,pst,10.61
2022-09-29T08:23:00,pst,10.55
2022-09-29T08:24:00,pst,10.50
2022-09-29T08:25:00,pst,9.87
2022-09-29T08:26:00,pst,9.77
2022-09-29T08:27:00,pst,9.61
2022-09-29T08:28:00,pst,9.43
2022-09-29T08:29:00,pst,9.43
2022-09-29T08:30:00,pst,9.44
2022-09-29T08:31:00,pst,9.44
2022-09-29T08:32:00,pst,9.40
2022-09-29T08:33:00,pst,9.35
2022-09-29T08:34:00,pst,9.33
2022-09-29T08:35:00,pst,9.34
2022-09-29T08:36:00,pst,9.39
2022-09-29T08:37:00,pst,9.70
2022-09-29T08:38:00,pst,9.69
2022-09-29T08:39:00,pst,9.68
2022-09-29T08:40:00,pst,9.76
2022-09-29T08:41:00,pst,9.82
2022-09-29T08:42:00,pst,9.80
2022-09-29T08:43:00,pst,9.88
2022-09-29T08:44:00,pst,9.93
2022-09-29T08:45:00,pst,10.04
2022-09-29T08:46:00,pst,10.03
2022-09-29T08:47:00,pst,9.79
2022-09-29T08:48:00,pst,9.73
2022-09-29T08:49:00,pst,9.73
2022-09-29T08:50:00,pst,9.72
2022-09-29T08:51:00,pst,9.68
2022-09-29T08:52:00,pst,9.60
2022-09-29T08:53:00,pst,9.50
2022-09-29T08:54:00,pst,9.55
2022-09-29T08:55:00,pst,9.36
2022-09-29T08:56:00,pst,9.50
2022-09-29T08:57:00,pst,9.48
2022-09-29T08:58:00,pst,9.65
2022-09-29T08:59:00,pst,20.58
2022-09-29T09:00:00,pst,22.26
2022-09-29T09:01:00,pst,9.63
2022-09-29T09:02:00,pst,9.61
2022-09-29T09:03:00,pst,9.50
2022-09-29T09:04:00,pst,9.56
2022-09-29T09:05:00,pst,9.68
2022-09-29T09:06:00,pst,9.57
2022-09-29T09:07:00,pst,9.53
2022-09-29T09:08:00,pst,9.52
2022-09-29T09:09:00,pst,9.59
2022-09-29T09:10:00,pst,9.62
2022-09-29T09:11:00,pst,9.53
2022-09-29T09:12:00,pst,9.58
2022-09-29T09:13:00,pst,9.72
2022-09-29T09:14:00,pst,10.34
2022-09-29T09:15:00,pst,10.44
2022-09-29T09:16:00,pst,10.50
2022-09-29T09:17:00,pst,10.39
2022-09-29T09:18:00,pst,10.32
2022-09-29T09:19:00,pst,10.44
2022-09-29T09:20:00,pst,10.41
2022-09-29T09:21:00,pst,10.41
2022-09-29T09:22:00,pst,10.41
2022-09-29T09:23:00,pst,10.40
2022-09-29T09:24:00,pst,19.16
2022-09-29T09:25:00,pst,18.04
2022-09-29T09:26:00,pst,18.03
2022-09-29T09:27:00,pst,17.96
2022-09-29T09:28:00,pst,9.56
2022-09-29T09:29:00,pst,9.66
2022-09-29T09:30:00,pst,9.60
2022-09-29T09:31:00,pst,20.71
2022-09-29T09:32:00,pst,9.77
2022-09-29T09:33:00,pst,9.78
2022-09-29T09:34:00,pst,10.04
2022-09-29T09:35:00,pst,9.82
2022-09-29T09:36:00,pst,9.78
2022-09-29T09:37:00,pst,9.74
2022-09-29T09:38:00,pst,9.87
2022-09-29T09:39:00,pst,9.88
2022-09-29T09:40:00,pst,10.16
2022-09-29T09:41:00,pst,9.85
2022-09-29T09:42:00,pst,9.84
2022-09-29T09:43:00,pst,9.90
2022-09-29T09:44:00,pst,9.74
2022-09-29T09:45:00,pst,9.66
2022-09-29T09:46:00,pst,9.68
2022-09-29T09:47:00,pst,9.66
2022-09-29T09:48:00,pst,9.63
2022-09-29T09:49:00,pst,9.68
2022-09-29T09:50:00,pst,9.74
2022-09-29T09:51:00,pst,9.73
2022-09-29T09:52:00,pst,10.42
2022-09-29T09:53:00,pst,9.89
2022-09-29T09:54:00,pst,9.74
2022-09-29T09:55:00,pst,10.09
2022-09-29T09:56:00,pst,10.84
2022-09-29T09:57:00,pst,10.76
2022-09-29T09:58:00,pst,10.81
2022-09-29T09:59:00,pst,10.77
2022-09-29T10:00:00,pst,10.84
2022-09-29T10:01:00,pst,10.79
2022-09-29T10:02:00,pst,11.00
2022-09-29T10:03:00,pst,10.76
2022-09-29T10:04:00,pst,10.75
2022-09-29T10:05:00,pst,11.00
2022-09-29T10:06:00,pst,10.92
2022-09-29T10:07:00,pst,10.82
2022-09-29T10:08:00,pst,10.97
2022-09-29T10:09:00,pst,11.11
2022-09-29T10:10:00,pst,10.41
2022-09-29T10:11:00,pst,10.25
2022-09-29T10:12:00,pst,10.42
2022-09-29T10:13:00,pst,10.23
2022-09-29T10:14:00,pst,10.56
2022-09-29T10:15:00,pst,10.25
2022-09-29T10:16:00,pst,10.43
2022-09-29T10:17:00,pst,12.17
2022-09-29T10:18:00,pst,10.59
2022-09-29T10:19:00,pst,12.68
2022-09-29T10:20:00,pst,11.19
2022-09-29T10:21:00,pst,11.14
2022-09-29T10:22:00,pst,11.12
2022-09-29T10:23:00,pst,10.34
2022-09-29T10:24:00,pst,10.53
2022-09-29T10:25:00,pst,10.43
2022-09-29T10:26:00,pst,10.34
2022-09-29T10:27:00,pst,10.19
2022-09-29T10:28:00,pst,10.22
2022-09-29T10:29:00,pst,10.44
2022-09-29T10:30:00,pst,11.80
2022-09-29T10:31:00,pst,12.35
2022-09-29T10:32:00,pst,12.47
2022-09-29T10:33:00,pst,11.28
2022-09-29T10:34:00,pst,10.18
2022-09-29T10:35:00,pst,10.16
2022-09-29T10:36:00,pst,10.29
2022-09-29T10:37:00,pst,10.22
2022-09-29T10:38:00,pst,14.50
2022-09-29T10:39:00,pst,14.44
2022-09-29T10:40:00,pst,13.97
2022-09-29T10:41:00,pst,9.88
2022-09-29T10:42:00,pst,23.80
2022-09-29T10:43:00,pst,13.95
2022-09-29T10:44:00,pst,13.94
2022-09-29T10:45:00,pst,13.88
2022-09-29T10:46:00,pst,13.98
2022-09-29T10:47:00,pst,13.99
2022-09-29T10:48:00,pst,14.01
2022-09-29T10:49:00,pst,13.96
2022-09-29T10:50:00,pst,13.99
2022-09-29T10:51:00,pst,14.11
2022-09-29T10:52:00,pst,13.94
2022-09-29T10:53:00,pst,13.95
2022-09-29T10:54:00,pst,14.05
2022-09-29T10:55:00,pst,13.95
2022-09-29T10:56:00,pst,14.02
2022-09-29T10:57:00,pst,14.04
2022-09-29T10:58:00,pst,14.24
2022-09-29T10:59:00,pst,14.21
2022-09-29T11:00:00,pst,14.29
2022-09-29T11:01:00,pst,14.21
2022-09-29T11:02:00,pst,14.11
2022-09-29T11:03:00,pst,14.18
2022-09-29T11:04:00,pst,14.19
2022-09-29T11:05:00,pst,14.21
2022-09-29T11:06:00,pst,14.08
2022-09-29T11:07:00,pst,14.15
2022-09-29T11:08:00,pst,14.08
2022-09-29T11:09:00,pst,14.15
2022-09-29T11:10:00,pst,14.15
2022-09-29T11:11:00,pst,14.06
2022-09-29T11:12:00,pst,13.86
2022-09-29T11:13:00,pst,13.89
2022-09-29T11:14:00,pst,13.87
2022-09-29T11:15:00,pst,14.03
2022-09-29T11:16:00,pst,13.99
2022-09-29T11:17:00,pst,14.05
2022-09-29T11:18:00,pst,14.19
2022-09-29T11:19:00,pst,14.14
2022-09-29T11:20:00,pst,14.19
2022-09-29T11:21:00,pst,14.45
2022-09-29T11:22:00,pst,14.54
2022-09-29T11:23:00,pst,14.68
2022-09-29T11:24:00,pst,14.97
2022-09-29T11:25:00,pst,15.17
2022-09-29T11:26:00,pst,11.19
2022-09-29T11:27:00,pst,14.93
2022-09-29T11:28:00,pst,14.94
2022-09-29T11:29:00,pst,15.52
2022-09-29T11:30:00,pst,11.57
2022-09-29T11:31:00,pst,11.23
2022-09-29T11:32:00,pst,15.32
2022-09-29T11:33:00,pst,14.53
2022-09-29T11:34:00,pst,14.38
2022-09-29T11:35:00,pst,10.39
2022-09-29T11:36:00,pst,10.37
2022-09-29T11:37:00,pst,14.27
2022-09-29T11:38:00,pst,14.13
2022-09-29T11:39:00,pst,10.40
2022-09-29T11:40:00,pst,10.43
2022-09-29T11:41:00,pst,10.15
2022-09-29T11:42:00,pst,21.41
2022-09-29T11:43:00,pst,18.73
2022-09-29T11:44:00,pst,10.02
2022-09-29T11:45:00,pst,10.19
2022-09-29T11:46:00,pst,19.06
2022-09-29T11:47:00,pst,18.81
2022-09-29T11:48:00,pst,10.58
2022-09-29T11:49:00,pst,10.52
2022-09-29T11:50:00,pst,10.21
2022-09-29T11:51:00,pst,10.09
2022-09-29T11:52:00,pst,10.34
2022-09-29T11:53:00,pst,9.99
2022-09-29T11:54:00,pst,10.99
2022-09-29T11:55:00,pst,10.93
2022-09-29T11:56:00,pst,23.13
2022-09-29T11:57:00,pst,10.88
2022-09-29T11:58:00,pst,10.91
2022-09-29T11:59:00,pst,12.67
2022-09-29T12:00:00,pst,12.25
2022-09-29T12:01:00,pst,12.07
2022-09-29T12:02:00,pst,10.67
2022-09-29T12:03:00,pst,10.83
2022-09-29T12:04:00,pst,10.74
2022-09-29T12:05:00,pst,18.74
2022-09-29T12:06:00,pst,18.43
2022-09-29T12:07:00,pst,18.33
2022-09-29T12:08:00,pst,18.32
2022-09-29T12:09:00,pst,18.30
2022-09-29T12:10:00,pst,18.46
2022-09-29T12:11:00,pst,18.41
2022-09-29T12:12:00,pst,18.18
2022-09-29T12:13:00,pst,16.65
2022-09-29T12:14:00,pst,16.68
2022-09-29T12:15:00,pst,16.64
2022-09-29T12:16:00,pst,16.62
2022-09-29T12:17:00,pst,16.55
2022-09-29T12:18:00,pst,16.43
2022-09-29T12:19:00,pst,16.60
2022-09-29T12:20:00,pst,16.67
2022-09-29T12:21:00,pst,16.69
2022-09-29T12:22:00,pst,16.67
2022-09-29T12:23:00,pst,16.63
2022-09-29T12:24:00,pst,16.64
2022-09-29T12:25:00,pst,16.63
2022-09-29T12:26:00,pst,16.57
2022-09-29T12:27:00,pst,16.64
2022-09-29T12:28:00,pst,16.64
2022-09-29T12:29:00,pst,16.70
2022-09-29T12:30:00,pst,16.74
2022-09-29T12:31:00,pst,16.30
2022-09-29T12:32:00,pst,16.14
2022-09-29T12:33:00,pst,16.15
2022-09-29T12:34:00,pst,16.22
2022-09-29T12:35:00,pst,27.34
2022-09-29T12:36:00,pst,16.07
2022-09-29T12:37:00,pst,16.07
2022-09-29T12:38:00,pst,16.13
2022-09-29T12:39:00,pst,16.14
2022-09-29T12:40:00,pst,16.24
2022-09-29T12:41:00,pst,16.25
2022-09-29T12:42:00,pst,16.29
2022-09-29T12:43:00,pst,16.45
2022-09-29T12:44:00,pst,16.38
2022-09-29T12:45:00,pst,16.33
2022-09-29T12:46:00,pst,12.39
2022-09-29T12:47:00,pst,12.46
2022-09-29T12:48:00,pst,12.45
2022-09-29T12:49:00,pst,16.32
2022-09-29T12:50:00,pst,16.41
2022-09-29T12:51:00,pst,8.73
2022-09-29T12:52:00,pst,8.64
2022-09-29T12:53:00,pst,16.49
2022-09-29T12:54:00,pst,16.42
2022-09-29T12:55:00,pst,12.53
2022-09-29T12:56:00,pst,8.67
2022-09-29T12:57:00,pst,12.53
2022-09-29T12:58:00,pst,12.41
2022-09-29T12:59:00,pst,12.44
2022-09-29T13:00:00,pst,16.35
2022-09-29T13:01:00,pst,12.46
2022-09-29T13:02:00,pst,8.50
2022-09-29T13:03:00,pst,8.58
2022-09-29T13:04:00,pst,8.57
2022-09-29T13:05:00,pst,9.27
2022-09-29T13:06:00,pst,9.27
2022-09-29T13:07:00,pst,9.31
2022-09-29T13:08:00,pst,23.72
2022-09-29T13:09:00,pst,7.97
2022-09-29T13:10:00,pst,7.92
2022-09-29T13:11:00,pst,7.85
2022-09-29T13:12:00,pst,7.92
2022-09-29T13:13:00,pst,7.78
2022-09-29T13:14:00,pst,7.85
2022-09-29T13:15:00,pst,7.81
2022-09-29T13:16:00,pst,7.92
2022-09-29T13:17:00,pst,7.95
2022-09-29T13:18:00,pst,8.01
2022-09-29T13:19:00,pst,17.49
2022-09-29T13:20:00,pst,7.98
2022-09-29T13:21:00,pst,7.94
2022-09-29T13:22:00,pst,8.25